Location: Costa Mesa
(33.6411°N, 117.9187°W)
Time: 22:39:35
(UTC+00:00)

Cosmos 1726 Rocket - Pass Details

Date: 10 September 2024
Orbit: 599 x 624 km, 82.5° (Epoch: 09 October)

Event Time Altitude Azimuth Distance (km) Brightness Sun altitude
Exits shadow 12:36:36 - 199° (SSW) 2,800 6.6 -12.2°
Reaches altitude 10° 12:38:46 10° 205° (SSW) 1,937 5.7 -11.8°
Maximum altitude 12:42:53 46° 279° (W) 809 3.8 -10.9°
Drops below altitude 10° 12:47:04 10° 353° (N) 1,962 6.2 -10.1°
Sets 12:49:23 0° 360° (N) 2,874 7.1 -9.6°
